Weather in Kizhi

Russia / Republic of Karelia     62°05′13″N   35°12′06″E
temp.,
°C
wind,
m/s
gust,
m/s
humid.,
%
clouds,
%
prec.,
mm/h
press.,
hPa
HPBL,
m
3 august, tue
tue300:00+18ene71179100 0.1 998179
03:00+16e101586100 3.7 993573
06:00+17se101696100 2.2 990657
09:00+17s13159190 3.8 988591
12:00+16sw172189100 0.5 9911287
15:00+17sw14198033 0.6 9961114
18:00+17sw1316765 0.0 9971035
21:00+16sw1215805 0.2 9991174
4 august, wed
wed400:00+14wsw13147985 0.1 1001988
03:00+14wsw121478100 0.1 10031136
06:00+14wsw13147230 0.1 10041274
09:00+15wsw1316630 0.1 10061444
12:00+17wsw10135814 0.0 10081852
15:00+18w9125430 0.0 1009336
18:00+18nw8115619 0.0 1011510
21:00+16nnw67569 0.0 1014832
5 august, thu
thu500:00+16wsw125170 0.0 1015323
03:00+16ssw5562100 0.0 1016565
06:00+16w446498 0.2 1016353
09:00+15wnw336384 0.2 1017314
12:00+15wsw115922 0.0 1018163
15:00+17sse33567 0.0 1018200
18:00+17wnw225748 0.0 1019343
21:00+17e336279 0.0 101984
6 august, fri
fri600:00+16ene336291 0.0 1019163
03:00+15e446670 0.0 1020200
06:00+15e446771 0.0 1020243
09:00+16ene556591 0.0 1020309
12:00+17ene34618 0.0 102098
15:00+18e2357100 0.0 102047
18:00+18s016380 0.0 102011
21:00+17e696375 0.0 1021318
7 august, sat
sat700:00+16ene79655 0.0 1022338
03:00+15ene710660 0.0 1022337
06:00+14ene89700 0.0 1023383
09:00+16e811610 0.0 1023659
12:00+17ene57581 0.0 1023200
15:00+18ne675712 0.0 1022103
18:00+19ene6958100 0.0 1022102
21:00+18e7106273 0.0 1022172